Location: Stuttgart
(48.8069°N, 9.1544°E)
Time: 15:34:38
(UTC+02:00)

ISS - Pass Details

Date: 18 May 2021
Orbit: 419 x 422 km, 51.6° (Epoch: 25 June)

Event Time Altitude Azimuth Distance (km) Brightness Sun altitude
Rises 02:45:11 0° 290° (WNW) 2,376 0.1 -19.0°
Reaches altitude 10° 02:47:19 10° 286° (WNW) 1,509 -1.0 -18.9°
Enters shadow 02:47:45 13° 284° (WNW) 1,333 -1.3 -18.9°
